Regional Weather Roundup
Issued by NWS

Home | Current Version | Previous Version | Text Only | Print | Product List | Glossary Off
Versions: 1 2 3 4 5 6 7 8 9 10 11 12 13 14 15 16 17 18 19 20 21 22 23 24 25 26 27 28 29 30 31 32 33 34 35 36 37 38 39 40 41 42 43 44 45 46 47 48 49 50

000
ASUS43 KLOT 180008
RWRIL

ILLINOIS REGIONAL WEATHER ROUNDUP
NATIONAL WEATHER SERVICE CHICAGO/ROMEOVILLE IL
600 PM CST WED JAN 17 2018

NOTE: "FAIR" INDICATES FEW OR NO CLOUDS BELOW 12,000 FEET WITH NO
SIGNIFICANT WEATHER AND/OR OBSTRUCTIONS TO VISIBILITY.

* THESE STATIONS ARE NOT UNDER NWS QUALITY CONTROL. THEY ALSO MAY NOT
  REPORT WEATHER SUCH AS PRECIPITATION OR FOG.

ILZ001-002-007-009-015-016-024-180100-
NORTHWEST ILLINOIS

CITY           SKY/WX    TMP DP  RH WIND       PRES   REMARKS
MOLINE         FAIR      19  11  70 SW9       30.40F WCI   8
6HR MIN TEMP:  16; 6HR MAX TEMP:  23;

STERLING*      FAIR      16  10  77 SW9       30.39S WCI   4
SAVANNA*       FAIR      19  10  70 SW13      30.37F WCI   5
$$

ILZ003-004-008-010-011-017-018-180100-
NORTH CENTRAL ILLINOIS

CITY           SKY/WX    TMP DP  RH WIND       PRES   REMARKS
ROCKFORD       FAIR      17   9  70 SW10      30.36S WCI   5
6HR MIN TEMP:  12; 6HR MAX TEMP:  19;

FREEPORT*      FAIR      16  10  74 SW15G23   30.34F WCI   2
ROCHELLE*      FAIR      16  11  78 SW16      30.37F WCI   1
DE KALB*       FAIR      17  10  71 SW16      30.35F WCI   2
PERU*          FAIR      17   9  69 SW14      30.42S WCI   3
$$

ILZ005-006-012>014-019>023-180100-
NORTHEAST ILLINOIS

CITY           SKY/WX    TMP DP  RH WIND       PRES   REMARKS
CHICAGO-OHARE  FAIR      18   8  65 SW15G21   30.34F WCI   4
6HR MIN TEMP:  16; 6HR MAX TEMP:  20;

CHICAGO-MIDWAY MOCLDY    19   9  65 SW15      30.36F WCI   5
6HR MIN TEMP:  17; 6HR MAX TEMP:  21;

AURORA         FAIR      17   9  70 SW16G24   30.37F WCI   2
6HR MIN TEMP:  12; 6HR MAX TEMP:  18;

LANSING*       FAIR      16  11  80 SW15      30.40F WCI   1
JOLIET*        FAIR      18  11  74 SW7       30.40F WCI   9
WAUKEGAN       FAIR      18   9  68 SW21G26   30.26F WCI   1
6HR MIN TEMP:  18; 6HR MAX TEMP:  22;

DUPAGE AIRPORT FAIR      16  10  77 SW17G29   30.35F WCI   0
6HR MIN TEMP:  12; 6HR MAX TEMP:  17;

KANKAKEE*      FAIR      15   9  75 SW14      30.45S WCI   1
WHEELING       FAIR      19  10  68 SW14      30.34F WCI   6
6HR MIN TEMP:  19; 6HR MAX TEMP:  22;

MORRIS*        FAIR      16  10  74 SW14      30.40F WCI   2
ROMEOVILLE*    FAIR      16  10  78 SW14G20   30.38F WCI   2
NORTHERLY ISL    N/A     19   9  65 SW13        N/A  WCI   6
$$

LMZ740>746-180100-
SOUTHERN LAKE MICHIGAN

STATION/POSITION SKY/WX   TEMP    WIND        PRES    VSBY  WAVE
                          AIR SEA DIR/SP/G                  HT/PER
                          (F)     (DEG/KT/KT) (MB)    (MI)  (FT/S)
HARRISON CRIB              22     210/ 21/ 25   N/A
BURNHAM HARBOR             19     260/  9/ 17   N/A
CALUMET HARBOR             18     200/ 12/ 18 1027.7F
BURNS HARBOR               17     210/ 16/ 21 1029.1F
MICHIGAN CITY              16     190/ 18/ 21   N/A
$$

ILZ025>027-034>036-040-047-049-050-058-095>099-180100-
WEST-CENTRAL ILLINOIS

CITY           SKY/WX    TMP DP  RH WIND       PRES   REMARKS
QUINCY         CLOUDY    17   8  67 SW8       30.49F WCI   7
GALESBURG*     FAIR      16  11  82 S9        30.45S WCI   4
MACOMB*        CLOUDY    18  10  73 SW9       30.49S WCI   6
JACKSONVILLE*  CLOUDY    18   9  66 SW7       30.51F WCI   9
PITTSFIELD*    CLOUDY    19  10  66 SW6       30.52F WCI  11
$$

ILZ028>032-037-038-041>044-048-051>054-059>061-180100-
CENTRAL ILLINOIS

CITY           SKY/WX    TMP DP  RH WIND       PRES   REMARKS
PONTIAC        FAIR      17  12  83 SW13      30.45S WCI   3
BLOOMINGTON    FAIR      15  10  80 SW13      30.45F WCI   1
DECATUR        FAIR      17  11  77 SW10      30.50F WCI   5
PEORIA         FAIR      18  10  71 SW12      30.47S WCI   5
6HR MIN TEMP:  14; 6HR MAX TEMP:  22;

LACON*         FAIR      19   9  67 SW7       30.44S WCI   9
LINCOLN*       FAIR      19  11  70 SW3       30.50S
SPRINGFIELD    FAIR      20   9  62 SW7       30.51F WCI  11
6HR MIN TEMP:  16; 6HR MAX TEMP:  23;

TAYLORVILLE    FAIR      17   9  71 SW8       30.53S WCI   6
6HR MIN TEMP:  14; 6HR MAX TEMP:  20;

$$

ILZ033-039-045-046-055>057-062-063-180100-
EAST-CENTRAL ILLINOIS

CITY           SKY/WX    TMP DP  RH WIND       PRES   REMARKS
CHAMPAIGN      FAIR      14   9  80 SW12      30.49F WCI   0
DANVILLE*      FAIR      12   8  83 SW9       30.46S WCI   0
RANTOUL*       FAIR      16  12  85 SW12      30.48S WCI   3
MATTOON        FAIR      15   9  76 S8        30.51F WCI   4
PARIS*         FAIR      10   6  82 SW8       30.52F WCI  -2
$$

ILZ079-100>102-180100-
SOUTHWEST ILLINOIS

CITY           SKY/WX    TMP DP  RH WIND       PRES   REMARKS
ALTON          CLEAR     18  10  73 W8        30.55F WCI   7
BELLEVILLE     CLOUDY    22   8  56 SW3       30.55F
CAHOKIA*       CLEAR     24   7  48 CALM      30.57S
SPARTA*        CLEAR     23  12  64 CALM      30.58F
$$

ILZ064>066-069>071-074>076-080>082-084>086-088>090-092>094-180100-
SOUTH-CENTRAL ILLINOIS

CITY           SKY/WX    TMP DP  RH WIND       PRES   REMARKS
CARBONDALE     FAIR      18  10  71 CALM      30.59F
6HR MIN TEMP:  17; 6HR MAX TEMP:  23;

CAIRO*         FAIR       9   4  77 CALM      30.64F
EFFINGHAM*     FAIR      17  10  77 S6        30.57S WCI   8
MARION         CLEAR     16   9  73 SW5       30.60F WCI   9
MT. VERNON     FAIR      13   6  74 CALM      30.59S
CENTRALIA*     CLOUDY    17  12  80 S6        30.56F WCI   8
SALEM*         FAIR      19  11  69 S3        30.57F
METROPOLIS*    FAIR      15   7  71 SW7       30.63F WCI   5
$$

ILZ067-068-072-073-078-083-087-091-180100-
SOUTHEAST ILLINOIS

CITY           SKY/WX    TMP DP  RH WIND       PRES   REMARKS
LAWRENCEVILLE  FAIR       6   1  80 S8        30.59F WCI  -7
FLORA*         FAIR      14   8  75 S6        30.58F WCI   5
FAIRFIELD*     FAIR      16   9  74 CALM      30.59S
HARRISBURG*    FAIR      15   8  76 CALM      30.61S
ROBINSON*      FAIR       8   3  80 S5        30.58F WCI   0
CARMI*         FAIR       9   5  84 S5        30.60S WCI   1
$$

ABBREVIATIONS USED IN REMARKS
   TC - TEMPERATURE IN CELSIUS
  WCI - WIND CHILL INDEX
   HX - HEAT INDEX
  VSB - VISIBILITY
$$




USA.gov is the U.S. government's official web portal to all federal, state and local government web resources and services.